Regional Weather Roundup
Issued by NWS

Home | Current Version | Previous Version | Text Only | Print | Product List | Glossary Off
Versions: 1 2 3 4 5 6 7 8 9 10 11 12 13 14 15 16 17 18 19 20 21 22 23 24 25 26 27 28 29 30 31 32 33 34 35 36 37 38 39 40 41 42 43 44 45 46 47 48 49 50

000
ASUS43 KLMK 260702
RWRKY
KENTUCKY REGIONAL WEATHER ROUNDUP
NATIONAL WEATHER SERVICE LOUISVILLE KY
300 AM EDT WED JUL 26 2017

NOTE "FAIR" INDICATES FEW OR NO CLOUDS BELOW 12,000 FEET
WITH NO SIGNIFICANT WEATHER AND/OR OBSTRUCTIONS TO VISIBILITY.

KYZ001>023-026-027-061>063-070>075-260800-
WESTERN AND SOUTH CENTRAL KENTUCKY

CITY           SKY/WX    TMP DP  RH WIND       PRES   REMARKS
PADUCAH        CLEAR     76  74  93 CALM      30.06F FOG
HENDERSON      CLEAR     74  70  87 E3        30.09F
OWENSBORO      CLEAR     75  68  78 E5        30.09
HOPKINSVILLE   CLEAR     77  71  82 NE3       30.08F
BOWLING GREEN  CLEAR     75  70  84 E3        30.10F
GLASGOW        NOT AVBL
$$

KYZ024-025-028>034-038-045-046-053-260800-
NORTH CENTRAL KENTUCKY

CITY           SKY/WX    TMP DP  RH WIND       PRES   REMARKS
LOUISVILLE/SDF CLEAR     73  62  68 E5        30.11F
LOUISVILLE/LOU CLEAR     71  64  78 E7        30.12F
FORT KNOX      CLEAR     70  63  77 E6        30.11F
$$

KYZ035>037-039>044-047>052-055>060-089>105-260800-
NORTHEAST KENTUCKY

CITY           SKY/WX    TMP DP  RH WIND       PRES   REMARKS
LEXINGTON      CLEAR     67  60  78 E7        30.15F
COVINGTON      CLEAR     65  62  90 SE9       30.16F
FRANKFORT      CLEAR     66  60  81 E6        30.14F
$$

KYZ054-064>069-076>088-106>120-260800-
SOUTHEAST KENTUCKY

CITY           SKY/WX    TMP DP  RH WIND       PRES   REMARKS
JACKSON        CLEAR     64  60  87 CALM      30.16F
LONDON         CLEAR     67  63  87 N3        30.15F
SOMERSET       NOT AVBL
MIDDLESBORO    CLEAR     65  65  99 CALM      30.16S
MONTICELLO     SUNNY     66  65  96 N8        30.15F
$$





USA.gov is the U.S. government's official web portal to all federal, state and local government web resources and services.